Location: Newark
(52.3735°N, 16.9806°E)
Time: 03:55:11
(UTC+00:00)

UNISAT 6 - Visible Passes

Search period start: 06 December 2021 00:00
Search period end: 16 December 2021 00:00
Orbit: 605 x 688 km, 97.7° (Epoch: 05 December)

Date Brightness Start Highest point End Pass type
(mag) Time Alt. Az. Time Alt. Az. Time Alt. Az.
06 Dec ? 03:26:53 10° ESE 03:30:02 21° ENE 03:33:08 10° NNE visible
06 Dec ? 05:02:12 10° S 05:06:24 57° W 05:10:36 10° NNW visible
07 Dec ? 03:51:36 10° SE 03:55:23 32° ENE 03:58:50 12° N visible
07 Dec ? 05:28:12 10° SSW 05:32:04 33° W 05:35:57 10° NNW visible
08 Dec ? 04:16:40 10° SSE 04:20:49 54° ENE 04:24:33 13° N visible
08 Dec ? 05:54:42 10° SW 05:57:51 20° W 06:01:00 10° NW visible
09 Dec ? 03:07:51 10° E 03:10:14 15° NE 03:12:34 10° NNE visible
09 Dec ? 04:42:05 10° SSE 04:46:20 87° WSW 04:50:17 12° NNW visible
10 Dec ? 03:32:10 10° ESE 03:35:31 23° ENE 03:38:18 13° NNE visible
10 Dec ? 05:07:48 10° S 05:11:56 50° W 05:16:01 11° NNW visible
11 Dec ? 03:56:59 10° SE 04:00:52 36° ENE 04:04:02 15° N visible
11 Dec ? 05:33:55 10° SSW 05:37:38 29° W 05:41:23 10° NNW visible
12 Dec ? 02:49:38 10° ENE 02:50:29 11° NE 02:51:20 10° NE visible
12 Dec ? 04:22:08 10° SSE 04:26:19 62° ENE 04:29:46 15° N visible
12 Dec ? 06:00:33 10° SW 06:03:26 18° W 06:06:20 10° NW visible
13 Dec ? 03:13:01 10° E 03:15:41 16° ENE 03:17:47 12° NNE visible
13 Dec ? 04:47:36 10° S 04:51:51 77° WSW 04:55:30 14° NNW visible
14 Dec ? 03:37:28 10° ESE 03:40:58 25° ENE 03:43:33 15° NNE visible
14 Dec ? 05:13:25 10° S 05:17:29 44° W 05:21:15 12° NNW visible
15 Dec ? 04:02:21 10° SE 04:06:21 41° ENE 04:09:18 17° N visible
15 Dec ? 05:39:38 10° SSW 05:43:12 26° W 05:46:49 10° NW visible
15 Dec ? 17:32:03 11° S 17:32:03 11° S 17:32:15 10° S visible
